Location: Schommer Observatory
(40.5200°N, 74.4500°W)
Time: 19:04:37
(UTC-04:00)

ISS - Visible Passes

Search period start: 23 March 2019 00:00
Search period end: 02 April 2019 00:00
Orbit: 408 x 411 km, 51.6° (Epoch: 23 March)

Date Brightness Start Highest point End Pass type
(mag) Time Alt. Az. Time Alt. Az. Time Alt. Az.
23 Mar -3.8 19:56:36 10° SW 19:59:54 88° SSE 20:03:14 10° NE visible
23 Mar -1.1 21:34:25 10° WNW 21:36:28 19° NNW 21:36:28 19° NNW visible
24 Mar -1.8 20:43:12 10° W 20:46:02 26° NNW 20:48:18 13° NNE visible
25 Mar -2.4 19:52:08 10° W 19:55:15 38° NNW 19:58:23 10° NE visible
25 Mar -1.0 21:30:44 10° NW 21:32:33 14° N 21:32:44 14° N visible
26 Mar -1.1 20:39:23 10° WNW 20:41:37 17° NNW 20:43:50 10° NNE visible
27 Mar -1.5 19:48:04 10° WNW 19:50:43 21° NNW 19:53:21 10° NNE visible
27 Mar -0.9 21:26:50 10° NNW 21:28:14 12° N 21:28:31 12° N visible
28 Mar -1.0 20:35:37 10° NW 20:37:15 13° N 20:38:52 10° NNE visible
29 Mar -1.1 19:44:16 10° NW 19:46:16 15° NNW 19:48:15 10° NNE visible
29 Mar -1.1 21:22:17 10° NNW 21:23:55 13° N 21:24:00 13° N visible
30 Mar -1.1 20:31:29 10° NNW 20:32:53 12° N 20:34:19 10° NNE visible
30 Mar -0.4 22:07:46 10° NNW 22:08:04 12° NNW 22:08:04 12° NNW visible
31 Mar -1.5 21:17:14 10° NNW 21:19:21 17° NNE 21:19:21 17° NNE visible
01 Apr -1.3 20:26:39 10° NNW 20:28:29 14° N 20:30:18 10° NE visible
01 Apr -0.7 22:02:36 10° NW 22:03:22 15° NW 22:03:22 15° NW visible
